This demonstration page uses our WeatherBlox Daily Observations layout. Learn more.

Left ArrowRight Arrow

Hourly Observations for November 4, 2016

Temp ( °F °C ) Dew Point ( °F °C ) Humidity (%) Winds ( mph kmh ) Pressure ( in mb ) Visibility ( mi km ) Precip ( " mm )
12:15 am 00:15 Clear 43 5.9 31 -0.3 65 65 NW 3 6 30.45 1031 10 16 0.00 0.00
12:35 am 00:35 Clear 47 8.1 33 0.4 59 59 W 5 7 30.42 1030 10 16 0.00 0.00
12:55 am 00:55 Clear 47 8.2 32 0.2 57 57 W 6 9 30.42 1030 10 16 0.00 0.00
1:15 am 01:15 Clear 45 7.2 32 0.2 61 61 W 5 7 30.42 1030 10 16 0.00 0.00
1:35 am 01:35 Clear 47 8.2 32 0.2 57 57 W 5 7 30.42 1030 10 16 0.00 0.00
1:55 am 01:55 Clear 43 6.1 32 -0.1 65 65 W 6 9 30.45 1031 10 16 0.00 0.00
2:15 am 02:15 Clear 47 8.1 33 0.4 59 59 WNW 5 7 30.42 1030 10 16 0.00 0.00
2:35 am 02:35 Clear 44 6.8 32 0 62 62 W 6 9 30.42 1030 10 16 0.00 0.00
2:55 am 02:55 Clear 41 5.2 32 -0.1 69 69 W 3 6 30.45 1031 10 16 0.00 0.00
3:15 am 03:15 Clear 44 6.5 32 0.1 64 64 W 5 7 30.42 1030 10 16 0.00 0.00
3:35 am 03:35 Clear 45 7 32 0.2 62 62 W 3 6 30.42 1030 10 16 0.00 0.00
3:55 am 03:55 Clear 41 5 31 -0.5 68 68 NW 3 6 30.45 1031 10 16 0.00 0.00
4:15 am 04:15 Clear 42 5.6 32 0 68 68 WNW 5 7 30.45 1031 10 16 0.00 0.00
4:35 am 04:35 Clear 43 6.1 32 0 65 65 WNW 3 6 30.45 1031 10 16 0.00 0.00
4:55 am 04:55 Clear 40 4.6 32 -0.2 71 71 WNW 3 6 30.45 1031 10 16 0.00 0.00
5:15 am 05:15 Clear 41 4.9 31 -0.3 69 69 Calm 30.45 1031 10 16 0.00 0.00
5:35 am 05:35 Clear 39 4.1 31 -0.5 72 72 Calm 30.45 1031 10 16 0.00 0.00
5:55 am 05:55 Clear 38 3.5 31 -0.6 75 75 NNW 3 6 30.45 1031 10 16 0.00 0.00
6:15 am 06:15 Clear 40 4.5 32 0 73 73 NNW 3 6 30.45 1031 10 16 0.00 0.00
6:35 am 06:35 Clear 40 4.6 32 0 72 72 NW 3 6 30.45 1031 10 16 0.00 0.00
6:55 am 06:55 Clear 40 4.5 32 0 73 73 Calm 30.45 1031 10 16 0.00 0.00
7:15 am 07:15 Clear 38 3.6 32 -0.2 76 76 Calm 30.45 1031 10 16 0.00 0.00
7:35 am 07:35 Clear 40 4.2 32 -0.1 74 74 NNW 3 6 30.45 1031 10 16 0.00 0.00
7:55 am 07:55 Clear 39 3.9 32 -0.1 75 75 NW 3 6 30.45 1031 10 16 0.00 0.00
8:15 am 08:15 Sunny 39 3.8 32 -0.1 76 76 Calm 30.45 1031 10 16 0.00 0.00
8:35 am 08:35 Sunny 38 3.6 31 -0.5 75 75 WNW 3 6 30.45 1031 10 16 0.00 0.00
8:55 am 08:55 Sunny 40 4.6 32 0.1 73 73 Calm 30.48 1032 10 16 0.00 0.00
9:15 am 09:15 Sunny N/A N/A N/A Calm N/A 10 16 0.00 0.00
9:35 am 09:35 undefined 46 7.6 35 1.5 66 66 Calm 30.45 1031 10 16 0.00 0.00
9:55 am 09:55 undefined 49 9.6 36 2 59 59 Calm 30.45 1031 10 16 0.00 0.00
10:15 am 10:15 undefined 53 11.8 36 2 51 51 Calm 30.42 1030 10 16 0.00 0.00
10:35 am 10:35 undefined 57 13.9 35 1.7 44 44 Calm 30.39 1029 10 16 0.00 0.00
10:55 am 10:55 undefined 61 16 35 1.5 38 38 SSW 3 6 30.39 1029 10 16 0.00 0.00
11:15 am 11:15 undefined 63 17.4 35 1.9 36 36 SSW 3 6 30.36 1028 10 16 0.00 0.00
11:35 am 11:35 undefined 67 19.2 35 1.5 31 31 SW 3 6 30.36 1028 10 16 0.00 0.00
11:55 am 11:55 undefined 68 20.2 35 1.7 29 29 SW 5 7 30.33 1027 N/A 0.00 0.00
12:15 pm 12:15 Partly Cloudy 71 21.5 34 1.2 26 26 WSW 7 11 30.33 1027 10 16 0.00 0.00
12:35 pm 12:35 Sunny 72 22 34 1.1 25 25 WSW 6 9 30.30 1026 10 16 0.01 0.25
12:55 pm 12:55 Sunny 73 22.6 34 0.9 24 24 WSW 7 11 30.30 1026 10 16 0.01 0.25
1:15 pm 13:15 Sunny 73 22.8 33 0.5 23 23 SW 7 11 30.30 1026 10 16 0.00 0.00
1:35 pm 13:35 Sunny 74 23.5 33 0.4 22 22 SW 9 15 30.24 1024 10 16 0.00 0.00
1:55 pm 13:55 Sunny 75 23.8 33 0.5 22 22 SW 10 17 30.24 1024 10 16 0.00 0.00
2:15 pm 14:15 Sunny 75 24 33 0.7 22 22 SW 12 19 30.24 1024 10 16 0.00 0.00
2:35 pm 14:35 Sunny 75 23.8 34 0.9 22 22 SW 10 17 30.24 1024 10 16 0.00 0.00
2:55 pm 14:55 Sunny 75 24.1 33 0.8 22 22 SW 12 19 30.21 1023 10 16 0.00 0.00
3:15 pm 15:15 Sunny 75 24 33 0.5 21 21 SW 9 15 30.21 1023 10 16 0.00 0.00
3:35 pm 15:35 Sunny 76 24.4 33 0.4 21 21 WSW 9 15 30.21 1023 10 16 0.00 0.00
3:55 pm 15:55 Sunny 76 24.3 33 0.5 21 21 SW 9 15 30.21 1023 10 16 0.00 0.00
4:15 pm 16:15 Sunny 76 24.3 33 0.6 21 21 SW 8 13 30.18 1022 10 16 0.00 0.00
4:35 pm 16:35 Sunny 75 24 33 0.6 21 21 SSW 10 17 30.18 1022 10 16 0.00 0.00
4:55 pm 16:55 Sunny 75 23.7 33 0.4 22 22 SSW 13 20 30.18 1022 10 16 0.00 0.00
5:15 pm 17:15 Sunny 73 22.6 33 0.5 23 23 SSW 8 13 30.18 1022 10 16 0.00 0.00
5:35 pm 17:35 Sunny 71 21.5 33 0.8 25 25 S 6 9 30.21 1023 10 16 0.00 0.00
5:55 pm 17:55 Sunny 69 20.3 34 1.1 28 28 S 6 9 30.21 1023 10 16 0.00 0.00
6:15 pm 18:15 Sunny 66 19 35 1.5 31 31 S 7 11 30.21 1023 10 16 0.00 0.00
6:35 pm 18:35 Clear 65 18.2 35 1.9 34 34 S 7 11 30.24 1024 10 16 0.00 0.00
6:55 pm 18:55 Clear 65 18.5 35 1.7 33 33 S 5 7 30.24 1024 10 16 0.00 0.00
7:15 pm 19:15 Clear 62 16.5 35 1.6 37 37 S 5 7 30.24 1024 10 16 0.00 0.00
7:35 pm 19:35 Clear 60 15.8 35 1.8 39 39 S 6 9 30.24 1024 10 16 0.00 0.00
7:55 pm 19:55 Clear 60 15.6 36 2.1 40 40 S 7 11 30.24 1024 10 16 0.00 0.00
8:15 pm 20:15 Clear 60 15.7 36 2 40 40 S 8 13 30.24 1024 10 16 0.00 0.00
8:35 pm 20:35 Clear 60 15.4 35 1.9 40 40 S 10 17 30.24 1024 10 16 0.00 0.00
8:55 pm 20:55 Clear 58 14.5 35 1.8 42 42 SSW 8 13 30.27 1025 10 16 0.00 0.00
9:15 pm 21:15 Clear 58 14.5 35 1.5 42 42 S 10 17 30.27 1025 10 16 0.00 0.00
9:35 pm 21:35 Clear 58 14.2 35 1.6 43 43 S 8 13 30.27 1025 10 16 0.00 0.00
9:55 pm 21:55 Clear 56 13.6 35 1.5 44 44 SSW 8 13 30.27 1025 10 16 0.00 0.00
10:15 pm 22:15 Clear 54 12 34 1.2 48 48 SSW 3 6 30.27 1025 10 16 0.00 0.00
10:35 pm 22:35 Clear 53 11.4 34 1 49 49 SSW 5 7 30.30 1026 10 16 0.00 0.00
10:55 pm 22:55 Clear 51 10.7 34 1 51 51 SSW 5 7 30.30 1026 10 16 0.00 0.00
11:15 pm 23:15 Clear 51 10.7 33 0.8 51 51 SSW 6 9 30.30 1026 10 16 0.00 0.00
11:35 pm 23:35 Clear 50 9.9 33 0.7 53 53 SSW 5 7 30.30 1026 10 16 0.00 0.00
11:55 pm 23:55 Clear 49 9.5 34 1 56 56 SW 6 9 30.30 1026 10 16 0.00 0.00

Powered by AerisWeather